Location: ????????
(55.5667°N, 37.5833°E)
Time: 17:58:37
(UTC+00:00)

Cosmos 1980 Rocket - Pass Details

Date: 14 April 2026
Orbit: 826 x 850 km, 71.0° (Epoch: 16 May)

Event Time Altitude Azimuth Distance (km) Brightness Sun altitude
Rises 22:42:51 0° 325° (NW) 3,421 5.9 -23.0°
Reaches altitude 10° 22:45:19 10° 326° (NNW) 2,485 5.1 -22.9°
Maximum altitude 22:51:03 83° 55° (NE) 864 2.2 -22.6°
Enters shadow 22:54:29 25° 142° (SE) 1,644 3.4 -22.4°
